Lid_Strength_Index
1 1 1 2 3 3 4 4 3 3 3 3 3 3 3 4 4 4 4 4 4 4 5 4 4 3 7 11 9 4 -1 -2 0 7 9 10 8 8 11 11 8 10 8 7 7 6 7
1 1 2 3 3 3 4 4 4 3 3 3 3 3 3 3 4 4 4 4 4 4 4 4 3 3 9 13 6 1 0 1 5 9 10 10 8 8 10 9 9 8 8 8 7 7 7
2 2 2 3 3 3 4 4 4 4 4 4 4 4 3 4 4 4 4 4 4 4 4 4 3 4 10 11 2 3 4 4 6 9 10 10 10 10 10 10 7 7 10 9 8 8 9
2 3 3 3 3 3 4 4 4 4 4 4 4 4 4 4 4 4 4 5 4 4 4 3 3 6 10 6 4 4 4 4 5 9 9 9 9 10 11 6 8 10 10 14 10 8 8
2 3 3 3 3 3 3 4 4 4 4 4 4 4 4 5 5 5 5 5 4 3 3 3 7 9 9 2 5 4 4 5 7 9 10 6 9 12 8 11 12 11 16 14 12 8 9
3 3 3 3 3 3 3 3 4 4 3 3 4 4 5 5 5 5 5 4 3 3 3 2 4 9 8 7 6 6 5 6 8 9 9 10 11 13 13 11 16 15 15 13 14 10 9
4 3 3 4 3 3 3 3 4 4 4 3 4 4 4 4 5 5 7 8 9 9 6 8 8 7 6 5 5 6 5 6 8 9 11 11 12 14 13 12 10 11 13 14 12 10 11
3 4 4 4 4 3 3 3 4 4 4 4 4 4 4 4 4 5 7 9 8 7 10 6 5 5 4 5 7 6 5 7 9 11 10 12 14 11 10 10 11 12 13 14 11 10 10
3 4 4 4 4 3 3 3 3 4 4 4 4 4 4 5 5 6 8 7 6 6 10 7 5 5 6 5 8 8 6 8 9 11 11 12 11 9 10 11 11 12 13 13 13 11 10
4 4 4 4 4 4 4 4 4 4 4 4 4 4 5 5 8 7 8 5 6 6 12 9 8 6 7 7 8 5 6 8 9 11 11 12 9 9 11 12 10 14 10 10 12 13 16
4 4 4 4 4 4 4 4 4 4 4 4 4 4 5 6 9 8 7 6 7 7 16 8 8 6 8 9 8 7 6 7 11 11 11 11 11 11 12 12 9 11 9 10 11 13 14
4 4 4 4 4 4 4 4 4 4 4 4 4 4 5 7 8 6 6 7 7 12 15 10 8 9 10 9 8 8 8 7 8 10 10 10 8 10 11 8 8 9 11 11 12 14 18
4 4 4 4 4 4 4 4 4 4 4 4 5 5 6 6 8 6 7 7 12 16 10 11 12 11 11 11 9 9 10 12 12 13 14 11 10 9 8 11 9 10 13 19 19 19 20
3 4 4 4 4 4 4 4 4 4 4 4 6 6 7 6 7 6 7 11 15 11 12 11 11 10 11 10 11 10 11 12 11 12 14 15 15 11 8 11 12 12 13 17 21 21 18
3 3 4 4 4 4 4 4 4 4 4 5 6 9 9 7 6 7 8 13 13 12 10 11 11 11 11 9 10 10 11 11 11 12 13 15 13 9 9 8 9 12 15 11 16 15 18
4 4 4 3 4 4 4 3 4 4 4 5 8 8 9 6 5 7 10 11 11 8 10 10 13 12 13 11 11 11 11 9 10 9 11 12 14 11 9 8 9 10 9 15 14 20 21
4 3 3 3 3 4 3 3 3 4 5 6 8 10 8 6 6 8 12 12 9 7 9 10 11 12 12 12 12 12 12 9 9 9 10 12 13 12 11 12 13 13 14 14 12 14 19
3 3 3 3 3 3 3 3 4 5 5 7 11 11 7 7 9 13 12 10 8 8 9 9 9 10 12 11 12 12 12 10 7 9 11 11 14 15 12 10 10 12 13 13 14 14 15
3 3 3 3 3 3 4 3 4 5 5 9 11 11 7 8 13 13 12 10 8 10 11 10 10 10 9 11 12 11 10 7 7 8 10 10 14 16 14 12 11 12 12 14 15 14 14
3 4 4 4 3 4 4 5 5 5 5 9 10 11 9 10 12 12 12 10 11 9 9 9 9 9 10 11 10 12 11 8 7 7 6 7 14 14 16 14 12 14 12 12 15 15 15
4 5 5 5 4 4 4 5 5 6 6 10 10 11 9 11 10 10 11 11 10 11 9 9 10 9 10 13 12 12 10 9 8 6 8 10 13 13 13 11 12 13 13 13 15 15 14
5 5 5 5 5 4 4 4 5 6 7 8 11 8 7 9 9 10 11 10 10 10 10 11 11 9 9 11 10 11 10 10 10 9 10 10 13 14 14 11 11 13 12 12 12 12 13
4 5 5 5 5 4 4 4 4 5 7 12 10 8 7 9 9 10 10 9 8 9 9 8 9 9 10 9 8 9 9 10 10 11 11 11 12 14 16 13 13 15 13 12 12 11 12
4 4 4 4 4 4 3 3 3 4 5 9 10 10 8 10 9 9 8 7 7 9 9 9 10 10 9 7 7 8 9 9 9 10 10 11 12 13 16 15 20 13 9 9 11 11 10
3 4 4 4 4 3 2 2 2 2 3 5 9 9 8 10 8 8 7 7 8 9 9 9 9 9 8 9 11 12 13 12 11 10 10 11 12 15 16 17 14 12 10 11 12 13 9
3 4 4 3 3 4 3 2 1 1 2 6 9 8 9 9 9 6 7 7 9 11 10 8 8 10 8 10 12 14 15 14 14 11 10 10 11 13 15 18 19 13 9 7 8 15 8
4 4 4 4 4 4 3 1 1 1 1 3 6 8 10 9 7 7 9 8 7 10 11 10 9 10 10 12 13 14 14 12 15 15 15 13 13 15 15 17 14 9 8 7 15 13 8
4 4 4 4 4 3 3 2 1 1 1 4 7 7 10 9 7 5 4 7 6 10 10 9 8 9 11 12 12 13 14 12 14 12 14 13 15 15 15 18 17 8 8 12 9 7 7
4 4 4 3 3 3 2 2 1 1 1 3 9 7 7 11 9 5 4 3 3 4 7 9 8 9 9 11 12 12 13 12 13 15 11 14 12 13 13 13 9 7 8 6 6 7 7